[[{"header":{"parameterUnit":"m.s-1","parameterCategory":1,"la1":30.2991,"la2":30.254,"lo1":-89.0895,"lo2":-89.0444,"dy":0.0017,"dx":0.0017,"nx":28,"ny":28,"refTime":"2025-01-02T03:00:00:Z","depth":0,"parameterNumber":2,"parameterNumberName":"U-component_of_WINDS"},"data":[0,0,0,0,0,0,0,0,0,0,0,0,0,0,0,0,0,0,0,0,0,0,0,0,0,0,0,0,0,0,0,0,0,0,0,0,0,0,0,0,0,0,0,0,0,0,0,0,0,0,0,0,0,0,0,0,0,0,-3.6836,-3.6836,0,-3.6835,-3.6835,-3.6835,-3.6719,-3.6716,-3.6713,-3.671,-3.6714,-3.6717,-3.6719,0,0,0,0,0,0,0,0,0,0,0,0,0,-3.6742,-3.6744,-3.6836,-3.6836,-3.6836,-3.6835,-3.6835,-3.6835,-3.672,-3.6716,-3.6712,-3.6709,-3.6713,-3.6716,-3.672,0,0,0,0,0,0,0,0,0,0,0,0,0,-3.6766,-3.6745,-3.6836,-3.6778,-3.6773,-3.6835,-3.6835,-3.6835,-3.6721,-3.6716,-3.6711,-3.6707,-3.6712,-3.6716,-3.672,-3.6839,0,0,-3.6734,-3.6736,0,0,0,0,0,0,0,0,-3.6765,-3.677,-3.6787,-3.6782,-3.6777,-3.6773,-3.6803,-3.6837,-3.6722,-3.6741,-3.671,-3.6705,-3.6737,-3.6739,-3.6749,-3.6839,-3.684,-3.6734,-3.6737,-3.6739,-3.674,0,0,0,0,0,0,0,-3.6764,-3.6769,-3.6836,-3.6787,-3.6781,-3.6754,-3.6752,-3.6809,-3.6765,-3.6739,-3.673,-3.6731,-3.6734,-3.6745,-3.6749,-3.684,-3.6734,-3.6738,-3.6741,-3.6742,-3.703,-3.7034,0,0,0,0,0,0,-3.6769,-3.6769,-3.6836,-3.6836,-3.6759,-3.6759,-3.6757,-3.6779,-3.6764,-3.6757,-3.6735,-3.6726,-3.674,-3.6744,-3.6748,-3.6888,-3.6739,-3.6743,-3.6745,-3.7025,-3.7031,-3.7036,0,0,0,0,0,0,-3.6768,-3.6776,-3.6836,-3.68,-3.6805,-3.6766,-3.6791,-3.6781,-3.6792,-3.6761,-3.6753,-3.6755,-3.6737,-3.6742,-3.6818,-3.6886,-3.6745,-3.6749,-3.7019,-3.7027,-3.7033,-3.7168,0,0,0,0,0,0,-3.6765,-3.6776,-3.682,-3.6802,-3.6808,-3.6904,-3.6795,-3.6784,-3.68,-3.6788,-3.6778,-3.6772,-3.6733,-3.6812,-3.6822,-3.689,-3.6752,-3.7012,-3.7022,-3.7031,-3.7157,-3.7179,-3.7198,0,0,0,0,0,-3.6762,-3.6858,-3.6823,-3.6832,-3.6861,-3.6908,-3.6912,-3.6865,-3.6806,-3.685,-3.6831,-3.6772,-3.6877,-3.682,-3.6831,-3.6901,-3.7008,-3.7019,-3.703,-3.7148,-3.7175,-3.7197,0,0,0,0,0,0,-3.6887,-3.6855,-3.6815,-3.6908,-3.6912,-3.6889,-3.6943,-3.6894,-3.6916,-3.6904,-3.6845,-3.6844,-3.693,-3.6923,-3.686,-3.7017,-3.6932,-3.6946,-3.7018,-3.7043,-3.7063,-3.7064,-3.6756,0,0,0,0,0,-3.6925,-3.6964,-3.6935,-3.702,-3.7023,-3.6984,-3.7002,-3.6965,-3.6968,-3.6969,-3.6954,-3.696,-3.6994,-3.7018,-3.7048,-3.7156,-3.7153,-3.7209,-3.723,-3.7247,-3.726,-3.7318,-3.7343,-3.7073,-3.7073,-3.7073,0,0,-3.7004,-3.6992,-3.702,-3.7044,-3.7043,-3.7087,-3.6986,-3.7036,-3.7069,-3.6977,-3.7047,-3.7038,-3.704,-3.7133,-3.7173,-3.713,-3.7334,-3.7261,-3.7275,-3.7278,-3.7332,-3.7358,-3.7381,-3.7081,-3.7079,-3.7078,0,0,-3.7171,-3.7165,-3.7236,-3.7236,-3.7235,-3.7208,-3.7226,-3.721,-3.72,-3.727,-3.7202,-3.7241,-3.7301,-3.7306,-3.7317,-3.7488,-3.7435,-3.7499,-3.7606,-3.7663,-3.7685,-3.7703,-3.7766,-3.7789,-3.7512,-3.7512,-3.7513,0,-3.727,-3.7332,-3.7278,-3.7334,-3.7347,-3.7265,-3.7338,-3.7341,-3.7351,-3.7363,-3.7314,-3.7389,-3.7385,-3.7478,-3.752,-3.7531,-3.755,-3.75,-3.7685,-3.7704,-3.772,-3.778,-3.7803,-3.752,-3.7519,-3.7518,-3.7518,0,-3.7455,-3.7499,-3.7557,-3.7567,-3.7587,-3.7651,-3.7608,-3.7635,-3.7597,-3.7576,-3.765,-3.7642,-3.7669,-3.7689,-3.7652,-3.7778,-3.7752,-3.7695,-3.7609,-3.7755,-3.781,-3.7832,-3.7531,-3.7529,-3.7526,-3.7524,0,0,-3.77,-3.768,-3.7703,-3.7707,-3.7701,-3.7735,-3.7796,-3.7822,-3.7847,-3.7857,-3.7908,-3.7961,-3.7909,-3.7921,-3.7885,-3.7935,-3.8074,-3.7873,-3.7872,-3.7912,-3.8214,-3.8257,-3.8284,-3.8039,-3.8043,-3.8046,-3.8214,0,-3.7863,-3.7964,-3.7918,-3.8025,-3.8067,-3.7991,-3.8044,-3.8047,-3.803,-3.8063,-3.8044,-3.8083,-3.8011,-3.8018,-3.8065,-3.8047,-3.8134,-3.8034,-3.8087,-3.809,-3.809,-3.8312,-3.8358,-3.8517,-3.8235,-3.8239,-3.8241,0,-3.8066,-3.8084,-3.8195,-3.8183,-3.8198,-3.8247,-3.8268,-3.8301,-3.8304,-3.8287,-3.8302,-3.8254,-3.8315,-3.8229,-3.8314,-3.8247,-3.8266,-3.8261,-3.8266,-3.827,-3.8175,-3.8324,-3.8566,-3.8591,-3.8274,-3.8271,-3.8269,0,-3.8236,-3.8287,-3.8361,-3.8367,-3.8354,-3.839,-3.8387,-3.8385,-3.8404,-3.8423,-3.8435,-3.8462,-3.8477,-3.8499,-3.8461,-3.8402,-3.8552,-3.8462,-3.8542,-3.8543,-3.8577,-3.8576,-3.8828,-3.8588,-3.8588,-3.8587,-3.8587,0,-3.8423,-3.8494,-3.8437,-3.8482,-3.8561,-3.8508,-3.8588,-3.8577,-3.8576,-3.8619,-3.8555,-3.8598,-3.8544,-3.8582,-3.8553,-3.8629,-3.8635,-3.8625,-3.8617,-3.8632,-3.8633,-3.8644,-3.8633,-3.8594,-3.8592,-3.8591,-3.859,0,-3.8625,-3.8589,-3.8665,-3.8647,-3.8644,-3.8703,-3.8688,-3.873,-3.8708,-3.8764,-3.8774,-3.8741,-3.8782,-3.8746,-3.8786,-3.8767,-3.8868,-3.8843,-3.8867,-3.886,-3.8943,-3.8936,-3.9211,-3.9246,-3.8983,-3.8986,-3.8988,0,-3.8748,-3.8801,-3.8788,-3.8812,-3.8813,-3.8852,-3.8871,-3.8822,-3.8845,-3.8853,-3.8895,-3.8931,-3.8957,-3.9028,-3.9008,-3.9039,-3.9015,-3.911,-3.9019,-3.9033,-3.9018,-3.9016,-3.9022,-3.9128,-3.9131,-3.9134,-3.9136,0,-3.8969,-3.8949,-3.8978,-3.9003,-3.9027,-3.9044,-3.9056,-3.908,-3.903,-3.9059,-3.91,-3.9121,-3.9162,-3.9199,-3.9224,-3.9222,-3.9172,-3.9164,-3.9185,-3.9201,-3.9213,-3.9209,-3.8918,-3.9158,-3.9156,-3.9155,-3.9153,-3.9152,-3.9136,-3.918,-3.9179,-3.9214,-3.9218,-3.9231,-3.9271,-3.9254,-3.9287,-3.9315,-3.9285,-3.9336,-3.9339,-3.9367,-3.9372,-3.9412,-3.9373,-3.9402,-3.9409,-3.9418,-3.943,-3.9206,-3.9416,-3.9415,-3.9415,-3.9414,-3.9414,0,-3.9355,-3.935,-3.9384,-3.9402,-3.9431,-3.938,-3.9391,-3.9419,-3.9464,-3.9471,-3.9498,-3.9546,-3.9583,-3.9566,-3.9598,-3.9634,-3.9612,-3.9644,-3.9642,-3.9643,-3.9463,-3.9442,-3.9662,-3.9662,-3.9661,-3.9661,-3.9661,-3.9661,-3.9472,-3.9545,-3.9526,-3.9601,-3.9596,-3.9644,-3.9655,-3.9668,-3.9673,-3.973,-3.9759,-3.9748,-3.9746,-3.9778,-3.9809,-3.9804,-3.9819,-3.986,-3.9847,-3.9679,-3.9655,-3.9632,-3.9613,-3.9864,-3.9864,-4.0023,-4.0025,-4.0026]},{"header":{"parameterUnit":"m.s-1","parameterCategory":1,"la1":30.2991,"la2":30.254,"lo1":-89.0895,"lo2":-89.0444,"dy":0.0017,"dx":0.0017,"nx":28,"ny":28,"refTime":"2025-01-02T03:00:00:Z","depth":0,"parameterNumber":3,"parameterNumberName":"V-component_of_WINDS"},"data":[0,0,0,0,0,0,0,0,0,0,0,0,0,0,0,0,0,0,0,0,0,0,0,0,0,0,0,0,0,0,0,0,0,0,0,0,0,0,0,0,0,0,0,0,0,0,0,0,0,0,0,0,0,0,0,0,0,0,-0.1185,-0.1186,0,-0.1217,-0.1217,-0.1217,-0.1196,-0.1196,-0.1195,-0.1194,-0.1228,-0.1229,-0.1231,0,0,0,0,0,0,0,0,0,0,0,0,0,-0.1109,-0.1111,-0.1185,-0.1186,-0.1186,-0.1216,-0.1217,-0.1217,-0.1197,-0.1195,-0.1194,-0.1193,-0.1227,-0.1229,-0.1231,0,0,0,0,0,0,0,0,0,0,0,0,0,-0.1142,-0.1111,-0.1185,-0.1179,-0.1179,-0.1216,-0.1217,-0.1217,-0.1197,-0.1195,-0.1194,-0.1193,-0.1226,-0.1229,-0.1232,-0.1277,0,0,-0.124,-0.1241,0,0,0,0,0,0,0,0,-0.114,-0.1144,-0.118,-0.118,-0.118,-0.1201,-0.1202,-0.1237,-0.1197,-0.119,-0.1194,-0.1192,-0.122,-0.1223,-0.1232,-0.1279,-0.128,-0.124,-0.1242,-0.1243,-0.1244,0,0,0,0,0,0,0,-0.1138,-0.1143,-0.1198,-0.1181,-0.118,-0.1176,-0.1179,-0.1209,-0.1213,-0.1191,-0.1189,-0.1193,-0.122,-0.123,-0.1233,-0.128,-0.124,-0.1242,-0.1244,-0.1245,-0.1365,-0.1366,0,0,0,0,0,0,-0.1136,-0.1141,-0.1197,-0.1199,-0.1156,-0.1178,-0.1182,-0.1196,-0.1213,-0.1214,-0.1194,-0.1192,-0.1226,-0.123,-0.1234,-0.1288,-0.1243,-0.1245,-0.1247,-0.1363,-0.1365,-0.1367,0,0,0,0,0,0,-0.1134,-0.1141,-0.1196,-0.117,-0.1176,-0.1181,-0.1197,-0.1197,-0.1207,-0.1215,-0.1216,-0.1204,-0.1225,-0.123,-0.1266,-0.1289,-0.1247,-0.1249,-0.1361,-0.1364,-0.1366,-0.1396,0,0,0,0,0,0,-0.1132,-0.114,-0.1157,-0.117,-0.1178,-0.1227,-0.1199,-0.1199,-0.1211,-0.1209,-0.1224,-0.1225,-0.1224,-0.1262,-0.1269,-0.1292,-0.1251,-0.1359,-0.1362,-0.1365,-0.1393,-0.1399,-0.1405,0,0,0,0,0,-0.1129,-0.1165,-0.1158,-0.1165,-0.1199,-0.1228,-0.1233,-0.123,-0.1213,-0.1231,-0.1236,-0.1225,-0.1285,-0.1266,-0.1273,-0.1298,-0.1358,-0.1361,-0.1365,-0.1391,-0.1398,-0.1405,0,0,0,0,0,0,-0.1157,-0.1167,-0.1159,-0.1201,-0.1214,-0.1225,-0.1247,-0.1238,-0.1256,-0.1253,-0.125,-0.1253,-0.1291,-0.1297,-0.1276,-0.1342,-0.1319,-0.1324,-0.1336,-0.1343,-0.1349,-0.1347,-0.1253,0,0,0,0,0,-0.1167,-0.1189,-0.1198,-0.1233,-0.124,-0.1242,-0.1255,-0.1251,-0.1265,-0.1271,-0.1278,-0.1292,-0.1314,-0.1329,-0.135,-0.1394,-0.1397,-0.1414,-0.1419,-0.1424,-0.1429,-0.1452,-0.146,-0.1378,-0.1378,-0.1378,0,0,-0.119,-0.1198,-0.1213,-0.1239,-0.1248,-0.1272,-0.1247,-0.1273,-0.1291,-0.1275,-0.1309,-0.1315,-0.133,-0.137,-0.1388,-0.1377,-0.1452,-0.1429,-0.1432,-0.1435,-0.1457,-0.1465,-0.1472,-0.1381,-0.138,-0.138,0,0,-0.1243,-0.1251,-0.1282,-0.1292,-0.1306,-0.1307,-0.1314,-0.1326,-0.1329,-0.1363,-0.1352,-0.1372,-0.141,-0.1422,-0.1432,-0.1488,-0.1479,-0.1495,-0.1525,-0.1548,-0.1554,-0.156,-0.158,-0.1588,-0.1499,-0.15,-0.15,0,-0.127,-0.1304,-0.1299,-0.1326,-0.1337,-0.1322,-0.1353,-0.1363,-0.1384,-0.1393,-0.1379,-0.1426,-0.1435,-0.1478,-0.1491,-0.15,-0.1509,-0.1494,-0.1554,-0.1559,-0.1565,-0.1584,-0.1591,-0.1501,-0.1501,-0.1501,-0.1501,0,-0.1336,-0.136,-0.1383,-0.1402,-0.1416,-0.1445,-0.1444,-0.1459,-0.1454,-0.1457,-0.1491,-0.1501,-0.1524,-0.1533,-0.1529,-0.1575,-0.1567,-0.1554,-0.1531,-0.1575,-0.1593,-0.16,-0.1504,-0.1504,-0.1503,-0.1502,0,0,-0.1409,-0.1424,-0.1432,-0.1441,-0.1455,-0.1473,-0.1501,-0.1522,-0.1535,-0.1549,-0.1573,-0.1604,-0.1592,-0.1604,-0.16,-0.162,-0.1664,-0.1605,-0.1605,-0.1616,-0.1715,-0.1726,-0.1734,-0.1657,-0.1659,-0.166,-0.1714,0,-0.1463,-0.1511,-0.1507,-0.1552,-0.1574,-0.156,-0.1584,-0.1595,-0.1598,-0.1617,-0.162,-0.1642,-0.1624,-0.1631,-0.165,-0.1655,-0.1684,-0.165,-0.168,-0.1681,-0.1677,-0.1744,-0.1755,-0.1806,-0.1721,-0.1722,-0.1723,0,-0.1534,-0.1549,-0.1597,-0.1607,-0.1616,-0.1638,-0.1656,-0.1674,-0.1687,-0.1687,-0.17,-0.1692,-0.172,-0.1696,-0.1735,-0.1712,-0.1723,-0.1727,-0.1729,-0.1733,-0.1705,-0.175,-0.1822,-0.183,-0.1734,-0.1733,-0.1732,0,-0.1582,-0.1616,-0.1648,-0.1656,-0.1668,-0.1683,-0.1689,-0.17,-0.1712,-0.1728,-0.1736,-0.1756,-0.1767,-0.1782,-0.178,-0.1762,-0.1819,-0.1795,-0.1821,-0.1821,-0.1835,-0.1834,-0.1911,-0.1841,-0.1841,-0.1841,-0.184,0,-0.1644,-0.1674,-0.167,-0.169,-0.1723,-0.1717,-0.175,-0.1754,-0.1763,-0.1784,-0.1773,-0.1793,-0.1788,-0.1808,-0.1807,-0.1839,-0.1844,-0.1846,-0.1845,-0.1847,-0.1847,-0.1856,-0.1852,-0.1843,-0.1842,-0.1842,-0.1841,0,-0.1705,-0.1703,-0.1738,-0.1746,-0.1749,-0.1773,-0.178,-0.1799,-0.1799,-0.1826,-0.1832,-0.1834,-0.1856,-0.1855,-0.1882,-0.1881,-0.192,-0.1916,-0.1916,-0.1915,-0.1942,-0.194,-0.2028,-0.2039,-0.1961,-0.1961,-0.1962,0,-0.1745,-0.1767,-0.1777,-0.179,-0.1797,-0.1817,-0.183,-0.1824,-0.1838,-0.1852,-0.187,-0.1891,-0.1908,-0.1945,-0.1949,-0.1969,-0.1964,-0.1994,-0.1967,-0.1969,-0.1965,-0.1964,-0.1967,-0.1999,-0.2,-0.2001,-0.2001,0,-0.1816,-0.1814,-0.1832,-0.1849,-0.1864,-0.1877,-0.189,-0.1901,-0.1897,-0.1912,-0.1935,-0.1948,-0.1973,-0.1995,-0.2014,-0.202,-0.201,-0.2009,-0.2017,-0.202,-0.2019,-0.202,-0.1931,-0.2008,-0.2007,-0.2007,-0.2006,-0.2006,-0.1868,-0.1887,-0.1897,-0.1917,-0.1925,-0.1937,-0.1955,-0.1957,-0.1976,-0.1996,-0.1991,-0.2017,-0.2028,-0.2051,-0.2059,-0.2079,-0.2069,-0.2079,-0.2082,-0.2085,-0.2088,-0.2015,-0.2082,-0.2082,-0.2082,-0.2082,-0.2082,0,-0.1939,-0.1944,-0.1962,-0.1979,-0.1995,-0.1983,-0.1996,-0.201,-0.2032,-0.2043,-0.2059,-0.2085,-0.2105,-0.211,-0.2129,-0.2144,-0.214,-0.215,-0.2149,-0.2151,-0.2096,-0.2088,-0.2153,-0.2153,-0.2153,-0.2153,-0.2153,-0.2153,-0.1977,-0.2009,-0.2008,-0.2043,-0.2048,-0.2072,-0.208,-0.2091,-0.2099,-0.2128,-0.2144,-0.2147,-0.2155,-0.2175,-0.2193,-0.2194,-0.2202,-0.2214,-0.2213,-0.2162,-0.2155,-0.2148,-0.214,-0.2215,-0.2215,-0.2266,-0.2266,-0.2267]}]]